Weather History for KBED - April, 2012

Change the Weather History Date:

Monday, April 30, 2012

  Actual Average (KBOS) Record (KBOS)
Temperature  
Mean Temperature 44 °F 53 °F  
Max Temperature 61 °F 61 °F 86 °F (1942)
Min Temperature 28 °F 45 °F 31 °F (1874)
Degree Days  
Heating Degree Days 20 12  
Month to date heating degree days 510  
Since 1 July heating degree days 5381  
Cooling Degree Days 0 0  
Month to date cooling degree days 3  
Year to date cooling degree days 3  
Moisture  
Dew Point 24 °F    
Average Humidity 40    
Maximum Humidity 75    
Minimum Humidity 23    
Precipitation  
Precipitation 0.00 in 0.12 in 1.44 in (1921)
Month to date precipitation 3.74  
Year to date precipitation 14.67  
Snow  
Snow 0.00 in 0.00 in 0.00 in (2009)
Month to date snowfall 1.9  
Since 1 July snowfall 43.8  
Snow Depth -    
Sea Level Pressure  
Sea Level Pressure 30.28 in    
Wind  
Wind Speed 5 mph (SW)    
Max Wind Speed 12 mph    
Max Gust Speed -    
Visibility 10 miles    
Events      
T = Trace of Precipitation, MM = Missing Value Source: NWS Daily Summary

Daily Weather History Graph

Daily Weather History Graph

Search for Another Location

Airport or City:

Trip Planner

Search our weather history database for the weather conditions in past years. The results will help you decide how hot, cold, wet, or windy it might be!

Date:

Astronomy

Apr. 30, 2012 Rise Set
Actual Time 5:40 AM EDT 7:44 PM EDT
Civil Twilight 5:10 AM EDT 8:15 PM EDT
Nautical Twilight 4:32 AM EDT 8:52 PM EDT
Astronomical Twilight 3:51 AM EDT 9:34 PM EDT
Moon 1:30 PM EDT (4/30) 2:11 AM EDT (4/30)
Length of Visible Light 15h 04m
Length of Day
14h 03m
Waxing Gibbous, 63% of the Moon is Illuminated
Apr 30
Waxing Gibbous
May 5
Full
May 12
Last Quarter
May 20
New
May 28
First Quarter

Hourly Weather History & Observations

Time (EDT) Temp. Windchill Dew Point Humidity Pressure Visibility Wind Dir Wind Speed Gust Speed Precip Events Conditions
12:56 AM 39.9 °F 36.7 °F 14.0 °F 35% 30.26 in 10.0 mi WNW 4.6 mph - N/A   Clear
1:56 AM 37.0 °F 31.6 °F 17.1 °F 44% 30.27 in 10.0 mi West 6.9 mph - N/A   Clear
2:56 AM 37.9 °F 35.5 °F 17.1 °F 43% 30.28 in 10.0 mi NW 3.5 mph - N/A   Clear
3:56 AM 32.0 °F - 21.0 °F 64% 30.29 in 10.0 mi Calm Calm - N/A   Clear
4:56 AM 32.0 °F - 21.0 °F 64% 30.30 in 10.0 mi Calm Calm - N/A   Clear
5:56 AM 28.9 °F - 21.9 °F 75% 30.29 in 10.0 mi Calm Calm - N/A   Clear
6:56 AM 36.0 °F 32.1 °F 23.0 °F 59% 30.34 in 10.0 mi WSW 4.6 mph - N/A   Clear
7:56 AM 44.1 °F 40.1 °F 18.0 °F 35% 30.35 in 10.0 mi WNW 6.9 mph - N/A   Clear
8:56 AM 48.0 °F - 17.1 °F 29% 30.35 in 10.0 mi WNW 10.4 mph - N/A   Clear
9:56 AM 50.0 °F - 19.0 °F 29% 30.36 in 10.0 mi NW 4.6 mph - N/A   Clear
10:56 AM 53.1 °F - 21.0 °F 29% 30.33 in 10.0 mi NNE 9.2 mph - N/A   Clear
11:56 AM 54.0 °F - 21.9 °F 29% 30.30 in 10.0 mi Calm Calm - N/A   Scattered Clouds
12:56 PM 57.0 °F - 24.1 °F 28% 30.29 in 10.0 mi Variable 5.8 mph - N/A   Clear
1:56 PM 60.1 °F - 25.0 °F 26% 30.27 in 10.0 mi West 6.9 mph - N/A   Clear
2:56 PM 61.0 °F - 24.1 °F 24% 30.26 in 10.0 mi West 9.2 mph - N/A   Clear
3:56 PM 61.0 °F - 23.0 °F 23% 30.24 in 10.0 mi SW 10.4 mph - N/A   Clear
4:56 PM 61.0 °F - 23.0 °F 23% 30.23 in 10.0 mi South 8.1 mph - N/A   Clear
5:56 PM 57.0 °F - 30.9 °F 37% 30.23 in 10.0 mi ESE 9.2 mph - N/A   Clear
6:56 PM 54.0 °F - 32.0 °F 43% 30.23 in 10.0 mi ESE 6.9 mph - N/A   Clear
7:56 PM 53.6 °F - 28.4 °F 38% 30.20 in 10.0 mi South 11.5 mph - N/A   Clear
8:56 PM 52.0 °F - 30.0 °F 43% 30.26 in 10.0 mi SSE 5.8 mph - N/A   Scattered Clouds
9:56 PM 51.1 °F - 30.9 °F 46% 30.25 in 10.0 mi South 8.1 mph - N/A   Mostly Cloudy
10:56 PM 50.0 °F - 32.0 °F 50% 30.21 in 10.0 mi South 8.1 mph - N/A   Partly Cloudy
11:56 PM 50.0 °F - 33.1 °F 52% 30.24 in 10.0 mi South 8.1 mph - N/A   Mostly Cloudy